Regional Weather Roundup
Issued by NWS Albany, NY

Home | Current Version | Previous Version | Graphics & Text | Print | Product List | Glossary Off
Versions: 1 2 3 4 5 6 7 8 9 10 11 12 13 14 15 16 17 18 19 20 21 22 23 24 25 26 27

000
ASUS41 KALY 200110
RWRALY

NEW YORK STATE HOURLY WEATHER ROUNDUP
NATIONAL WEATHER SERVICE ALBANY NY
900 PM EDT TUE SEP 19 2017

NOTE: "FAIR" INDICATES FEW OR NO CLOUDS BELOW 12,000 FEET WITH NO
SIGNIFICANT WEATHER AND/OR NO OBSTRUCTIONS TO VISIBILITY.

NYZ032-033-038>043-046>054-057>066-NYZ062>081-082-084-200200-
EAST


CITY           SKY/WX    TMP DP  RH WIND       PRES   REMARKS
ALBANY         MOCLDY    69  61  75 N6        30.01R
GLENS FALLS    PTCLDY    63  59  87 CALM      30.02S
POUGHKEEPSIE   CLOUDY    73  62  68 N7        29.94R
NEWBURGH       MOCLDY    73  64  73 NE9       29.97R
MONTGOMERY     CLOUDY    73  62  68 NE10      29.95R
WHITE PLAINS   CLOUDY    70  64  81 N13G25    29.90S
ISLIP          LGT RAIN  69  67  93 N16       29.85R
NEW YORK CITY  CLOUDY    72  66  81 NE17G26   29.88R
CENTRAL PARK   CLOUDY    70  65  84 NE14G21   29.92R
$$

NYZ005>009-017-018-044>046-055-056-200200-
CENTRAL


CITY           SKY/WX    TMP DP  RH WIND       PRES   REMARKS
FULTON         CLEAR     65  62  90 CALM      30.01R
SYRACUSE       MOCLDY    66  62  87 CALM      30.00R
ROME           PTCLDY    68  62  81 E5        30.02R
ELMIRA         CLEAR     67  64  90 SW3       30.00R
BINGHAMTON     CLEAR     66  54  65 NE7       30.02R
MONTICELLO     CLOUDY    66  61  84 N7        30.01F
$$

NYZ026>034-041>043-087-200200-
NORTH


CITY           SKY/WX    TMP DP  RH WIND       PRES   REMARKS
WATERTOWN      CLOUDY    64  64 100 CALM      30.00S
FORT DRUM      NOT AVBL
OGDENSBURG     FAIR      66  64  93 CALM      30.01S
MASSENA        PTCLDY    68  66  93 NE3       30.03R
SARANAC LAKE   CLEAR     59  59 100 CALM      30.07R
PLATTSBURGH    CLEAR     64  61  90 CALM      30.03S
$$

NYZ001>004-010>016-019>021-085-200200-
WEST


CITY           SKY/WX    TMP DP  RH WIND       PRES   REMARKS
NIAGARA FALLS  CLEAR     72  65  78 E7        29.99S
BUFFALO        CLOUDY    69  67  93 NE7       30.00R
DUNKIRK        CLEAR     65  64  97 CALM      29.99S
JAMESTOWN      CLEAR     69  63  81 NE5       30.04R
WELLSVILLE     CLEAR     64  57  78 NE5       30.07R
ROCHESTER      CLOUDY    72  63  73 E3        30.01R
PENN YAN       CLEAR     63  59  87 CALM      30.02R
$$

             KEY
       WCI = WIND CHILL INDEX
       VSB = VISIBILITY
       HX  = HEAT INDEX
$$




USA.gov is the U.S. government's official web portal to all federal, state and local government web resources and services.